When you browse on this site, cookies collect data to enhance your experience and personalize the content and advertising you see.
Visit our Privacy Policy to learn more. By continuing to use the site, you agree to this use of cookies and data.
  • In Czech Republic
  • List of Countries
  • For 7 days
  • Water Temperature
  • Weather Map
  • Weather Widgets
  • user-avatar
    Login

    Hourly Weather Brisbane

    Today, 3 April, Friday

    Time Temperature Precipitation Wind Pressure Humidity
    00:00 +23°C° 0 mm 1 mps 758 mmHg 84%
    01:00 +23°C° 0 mm 1 mps 758 mmHg 85%
    02:00 +22°C° 0 mm 1 mps 758 mmHg 86%
    03:00 +22°C° 0 mm 1 mps 757 mmHg 87%
    04:00 +22°C° 0 mm 1 mps 757 mmHg 88%
    05:00 +22°C° 0 mm 1 mps 757 mmHg 86%
    06:00 +23°C° 0 mm 1 mps 757 mmHg 85%
    07:00 +23°C° 0 mm 1 mps 757 mmHg 84%
    08:00 +25°C° 0 mm 1 mps 757 mmHg 73%
    09:00 +28°C° 0 mm 1 mps 757 mmHg 63%
    10:00 +30°C° 0 mm 1 mps 758 mmHg 52%
    11:00 +31°C° 0 mm 2 mps 757 mmHg 50%
    12:00 +32°C° 0 mm 2 mps 756 mmHg 49%
    13:00 +33°C° 0 mm 3 mps 756 mmHg 47%
    14:00 +31°C° 0 mm 3 mps 755 mmHg 52%
    15:00 +30°C° 0 mm 3 mps 755 mmHg 57%
    16:00 +29°C° 0 mm 3 mps 755 mmHg 61%
    17:00 +28°C° 0 mm 3 mps 755 mmHg 66%
    18:00 +27°C° 0 mm 3 mps 755 mmHg 71%
    19:00 +26°C° 0 mm 3 mps 756 mmHg 76%
    20:00 +25°C° 0 mm 3 mps 756 mmHg 77%
    21:00 +25°C° 0 mm 3 mps 756 mmHg 79%
    22:00 +25°C° 0 mm 3 mps 756 mmHg 82%
    23:00 +24°C° 0 mm 3 mps 756 mmHg 82%

    Tomorrow, 4 April, Saturday

    Time Temperature Precipitation Wind Pressure Humidity
    00:00 +24°C° 0 mm 3 mps 756 mmHg 82%
    01:00 +24°C° 0 mm 2 mps 755 mmHg 83%
    02:00 +24°C° 0 mm 2 mps 755 mmHg 83%
    03:00 +22°C° 0 mm 3 mps 755 mmHg 83%
    04:00 +22°C° 0 mm 3 mps 755 mmHg 83%
    05:00 +23°C° 0 mm 2 mps 755 mmHg 82%
    06:00 +23°C° 0 mm 2 mps 755 mmHg 81%
    07:00 +24°C° 0 mm 2 mps 755 mmHg 80%
    08:00 +26°C° 0 mm 2 mps 756 mmHg 71%
    09:00 +28°C° 0 mm 2 mps 756 mmHg 63%
    10:00 +30°C° 0 mm 3 mps 756 mmHg 54%
    11:00 +31°C° 0.1 mm 3 mps 755 mmHg 52%
    12:00 +33°C° 0.1 mm 3 mps 754 mmHg 50%
    13:00 +34°C° 0.1 mm 4 mps 754 mmHg 49%
    14:00 +32°C° 0.8 mm 4 mps 754 mmHg 56%
    15:00 +30°C° 0.8 mm 4 mps 754 mmHg 63%
    16:00 +28°C° 0.8 mm 4 mps 754 mmHg 71%
    17:00 +27°C° 0.3 mm 3 mps 754 mmHg 74%
    18:00 +26°C° 0.3 mm 2 mps 755 mmHg 77%
    19:00 +25°C° 0.3 mm 1 mps 755 mmHg 80%
    20:00 +25°C° 0 mm 1 mps 755 mmHg 81%
    21:00 +24°C° 0 mm 1 mps 756 mmHg 82%
    22:00 +24°C° 0 mm 1 mps 756 mmHg 83%
    23:00 +24°C° 0 mm 1 mps 756 mmHg 85%

    Day after tomorrow, 5 April, Sunday

    Time Temperature Precipitation Wind Pressure Humidity
    00:00 +23°C° 0 mm 1 mps 756 mmHg 86%
    01:00 +23°C° 0 mm 2 mps 756 mmHg 88%
    02:00 +21°C° 0 mm 2 mps 756 mmHg 88%
    03:00 +21°C° 0 mm 2 mps 757 mmHg 89%
    04:00 +20°C° 0 mm 2 mps 757 mmHg 89%
    05:00 +20°C° 0 mm 2 mps 757 mmHg 86%
    06:00 +20°C° 0 mm 2 mps 758 mmHg 83%
    07:00 +20°C° 0 mm 2 mps 758 mmHg 81%
    08:00 +23°C° 0 mm 2 mps 759 mmHg 69%
    09:00 +25°C° 0 mm 2 mps 759 mmHg 57%
    10:00 +27°C° 0 mm 2 mps 759 mmHg 45%
    11:00 +29°C° 0 mm 2 mps 759 mmHg 43%
    12:00 +30°C° 0 mm 3 mps 758 mmHg 40%
    13:00 +32°C° 0 mm 4 mps 758 mmHg 37%
    14:00 +30°C° 0 mm 4 mps 758 mmHg 42%
    15:00 +28°C° 0 mm 4 mps 758 mmHg 47%
    16:00 +27°C° 0 mm 4 mps 758 mmHg 52%
    17:00 +26°C° 0 mm 4 mps 758 mmHg 60%
    18:00 +23°C° 0 mm 4 mps 759 mmHg 68%
    19:00 +22°C° 0 mm 3 mps 759 mmHg 76%
    20:00 +22°C° 0 mm 3 mps 760 mmHg 77%
    21:00 +21°C° 0 mm 2 mps 760 mmHg 78%
    22:00 +22°C° 0 mm 1 mps 760 mmHg 79%
    23:00 +20°C° 0 mm 2 mps 760 mmHg 80%

    6 April, Monday

    Time Temperature Precipitation Wind Pressure Humidity
    00:00 +20°C° 0 mm 2 mps 760 mmHg 80%
    01:00 +20°C° 0 mm 2 mps 760 mmHg 81%
    02:00 +19°C° 0 mm 2 mps 760 mmHg 82%
    03:00 +19°C° 0 mm 2 mps 760 mmHg 83%
    04:00 +18°C° 0 mm 2 mps 760 mmHg 84%
    05:00 +19°C° 0 mm 2 mps 760 mmHg 83%
    06:00 +19°C° 0 mm 2 mps 761 mmHg 82%
    07:00 +19°C° 0 mm 2 mps 761 mmHg 81%
    08:00 +21°C° 0 mm 2 mps 761 mmHg 71%
    09:00 +24°C° 0 mm 2 mps 761 mmHg 62%
    10:00 +26°C° 0 mm 3 mps 761 mmHg 52%
    11:00 +27°C° 0 mm 3 mps 761 mmHg 49%
    12:00 +28°C° 0 mm 4 mps 760 mmHg 47%
    13:00 +29°C° 0 mm 4 mps 760 mmHg 45%
    14:00 +28°C° 0 mm 4 mps 759 mmHg 48%
    15:00 +27°C° 0 mm 4 mps 759 mmHg 51%
    16:00 +27°C° 0 mm 4 mps 759 mmHg 54%
    17:00 +26°C° 0 mm 4 mps 759 mmHg 58%
    18:00 +23°C° 0 mm 4 mps 760 mmHg 63%
    19:00 +22°C° 0 mm 4 mps 760 mmHg 67%
    20:00 +22°C° 0 mm 4 mps 760 mmHg 69%
    21:00 +21°C° 0 mm 3 mps 761 mmHg 71%
    22:00 +21°C° 0 mm 3 mps 761 mmHg 72%
    23:00 +20°C° 0 mm 3 mps 761 mmHg 73%

    7 April, Tuesday

    Time Temperature Precipitation Wind Pressure Humidity
    00:00 +20°C° 0 mm 3 mps 761 mmHg 74%
    01:00 +20°C° 0 mm 3 mps 761 mmHg 75%
    02:00 +19°C° 0 mm 3 mps 760 mmHg 76%
    03:00 +19°C° 0 mm 3 mps 760 mmHg 77%
    04:00 +18°C° 0 mm 3 mps 760 mmHg 79%
    05:00 +19°C° 0 mm 3 mps 761 mmHg 78%
    06:00 +19°C° 0 mm 3 mps 761 mmHg 77%
    07:00 +19°C° 0 mm 3 mps 761 mmHg 76%
    08:00 +21°C° 0 mm 3 mps 761 mmHg 67%
    09:00 +24°C° 0 mm 3 mps 761 mmHg 59%
    10:00 +26°C° 0 mm 4 mps 761 mmHg 50%
    11:00 +27°C° 0 mm 4 mps 761 mmHg 49%
    12:00 +27°C° 0 mm 4 mps 760 mmHg 48%
    13:00 +27°C° 0 mm 5 mps 760 mmHg 46%
    14:00 +27°C° 0 mm 5 mps 760 mmHg 49%
    15:00 +26°C° 0 mm 5 mps 759 mmHg 52%
    16:00 +26°C° 0 mm 5 mps 759 mmHg 54%
    17:00 +25°C° 0 mm 4 mps 760 mmHg 58%
    18:00 +23°C° 0 mm 4 mps 760 mmHg 62%
    19:00 +21°C° 0 mm 4 mps 761 mmHg 67%
    20:00 +21°C° 0 mm 3 mps 761 mmHg 70%
    21:00 +20°C° 0 mm 3 mps 761 mmHg 73%
    22:00 +20°C° 0 mm 3 mps 762 mmHg 76%
    23:00 +19°C° 0 mm 3 mps 761 mmHg 78%

    8 April, Wednesday

    Time Temperature Precipitation Wind Pressure Humidity
    00:00 +19°C° 0 mm 3 mps 761 mmHg 80%
    01:00 +18°C° 0 mm 3 mps 761 mmHg 82%
    02:00 +18°C° 0 mm 3 mps 761 mmHg 84%
    03:00 +18°C° 0 mm 3 mps 761 mmHg 85%
    04:00 +18°C° 0 mm 3 mps 761 mmHg 86%
    05:00 +18°C° 0.2 mm 3 mps 761 mmHg 85%
    06:00 +19°C° 0.2 mm 3 mps 762 mmHg 85%
    07:00 +19°C° 0.2 mm 3 mps 762 mmHg 84%
    08:00 +20°C° 0.4 mm 3 mps 762 mmHg 80%
    09:00 +21°C° 0.4 mm 4 mps 762 mmHg 77%
    10:00 +22°C° 0.4 mm 4 mps 762 mmHg 73%
    11:00 +22°C° 0 mm 4 mps 762 mmHg 70%
    12:00 +22°C° 0 mm 4 mps 762 mmHg 67%
    13:00 +23°C° 0 mm 4 mps 761 mmHg 64%
    14:00 +23°C° 0 mm 4 mps 761 mmHg 63%
    15:00 +23°C° 0 mm 4 mps 761 mmHg 63%
    16:00 +23°C° 0 mm 4 mps 761 mmHg 63%
    17:00 +23°C° 0 mm 4 mps 762 mmHg 66%
    18:00 +22°C° 0 mm 4 mps 762 mmHg 69%
    19:00 +21°C° 0 mm 4 mps 763 mmHg 72%
    20:00 +21°C° 0.1 mm 4 mps 763 mmHg 74%
    21:00 +20°C° 0.1 mm 4 mps 763 mmHg 77%
    22:00 +20°C° 0.1 mm 4 mps 764 mmHg 79%
    23:00 +19°C° 0 mm 4 mps 764 mmHg 79%
    Show more